Flag for Poland Weather past 2 weeks in Kielce, Poland

Now
36 °F

Overcast.


Feels Like: 30 °F
Forecast: 26 / 34 °F
Wind: 7 mph from Southeast

Location: Kielce

Current Time: Jan 30, 2015 at 12:35:41 PM

Latest Report: Jan 30, 2015 at 12:00 PM


Visibility: 11 mi

Pressure: 28.97 "Hg

Humidity: 84%

Dew point: 32 °F

Location of KielceLocation

Historic Weather in Kielce — Graph

°F

Kielce temperature yesterday

Maximum temperature yesterday: 32 °F (at 9:00 AM)
Minimum temperature yesterday: 25 °F (at 11:00 PM)
Average temperature yesterday: 30 °F

Past Weeks' High & Low Weather Summary

 TemperatureHumidityPressure
High51 °F (Jan 17, 12:00 PM)100% (Jan 20, 3:00 AM)30.29 "Hg (Jan 20, 3:00 AM)
Low23 °F (Jan 30, 1:00 AM)64% (Jan 15, 3:00 PM)29.00 "Hg (Jan 30, 11:00 AM)
Average33 °F93%29.97 "Hg
* Reported Jan 15 11:00 AM — Jan 30 11:00 AM, Kielce, Weather by CustomWeather, © 2014

Note: Actual official high and low records may vary slightly from our data, if they occured in-between our weather recording intervals... More about our weather records

Advertising

Kielce weather history for previous 24 hours

 ConditionsComfort  
Time TempWeatherWind HumidityBarometerVisibility
11:00 AM
Jan 30
35 °FOvercast.7 mph85%29.00 "Hg9 mi
10:00 AM33 °FOvercast.6 mph88%29.03 "Hg6 mi
9:00 AM32 °FOvercast.6 mph89%29.03 "Hg6 mi
8:00 AM30 °FOvercast.6 mph89%29.06 "Hg6 mi
7:00 AM29 °FOvercast.6 mph93%29.06 "Hg7 mi
6:00 AM29 °FOvercast.5 mph93%29.12 "Hg7 mi
5:00 AM28 °FOvercast.6 mph93%29.12 "Hg9 mi
3:00 AM26 °FFog.2 mph95%29.21 "Hg6 mi
2:00 AM25 °FFog.3 mph96%29.23 "Hg5 mi
1:00 AM23 °FFog.2 mph96%29.26 "Hg3 mi
12:00 AM24 °FFog.2 mph96%29.29 "Hg2 mi
11:00 PM
Jan 29
25 °FFog.2 mph95%29.29 "Hg3 mi
9:00 PM26 °FFog.3 mph97%29.35 "Hg2 mi
8:00 PM26 °FFog.3 mph97%29.38 "Hg2 mi
7:00 PM27 °FFog.3 mph97%29.38 "Hg4 mi
6:00 PM29 °FFog.3 mph98%29.41 "Hg2 mi
5:00 PM31 °FFog.3 mph98%29.41 "Hg3 mi
4:00 PM30 °FFog.3 mph98%29.41 "Hg2 mi
3:00 PM32 °FLow clouds.5 mph98%29.41 "Hg2 mi
2:00 PM31 °FLight snow. Low clouds.5 mph98%29.44 "Hg2 mi
1:00 PM31 °FSnow. Low clouds.5 mph97%29.44 "Hg2 mi
12:00 PM31 °FLight snow. Low clouds.5 mph96%29.47 "Hg2 mi
Weather by CustomWeather, © 2014

See weather overviewHow to use our weather pages